Tracking 28091 objects as of 30-Sep-2023
HD Live streaming from Space Station
objects crossing your sky now

CZ-6A DEB

Track CZ-6A DEB now!
10-day predictions


NORAD ID: 54290
Int'l Code: 2022-151AH
Perigee: 706.9 km
Apogee: 892.0 km
Inclination: 98.6 °
Period: 100.7 minutes
Semi major axis: 7170 km
RCS: Unknown
Launch date: November 11, 2022
Source: People's Republic of China (PRC)
Launch site: Taiyaun Space Center, China (TSC)

Note: This is SATELLITE DEBRIS
Your satellite tracking list
Your tracking list is empty




NASA's NSSDC Master Catalog

Two Line Element Set (TLE):
1 54290U 22151AH  23272.25778551  .00000905  00000-0  33721-3 0  9990
2 54290  98.5742 276.4483 0129067  96.7322 264.8567 14.29836416 45343
Source of the keplerian elements: AFSPC